Location: Newark
(37.3394°N, 6.0261°W)
Time: 05:48:57
(UTC+00:00)

OTV 5 (USA 277) - Pass Details

Date: 22 October 2019
Orbit: 310 x 324 km, 54.5° (Epoch: 17 October)

Event Time Altitude Azimuth Distance (km) Brightness Sun altitude
Exits shadow 05:34:41 23° 234° (SW) 730 ? -13.3°
Maximum altitude 05:34:45 23° 232° (SW) 730 ? -13.3°
Drops below altitude 10° 05:37:01 10° 175° (S) 1,221 ? -12.9°
Sets 05:39:09 0° 160° (SSE) 2,044 ? -12.4°
